[[{"header":{"parameterUnit":"m.s-1","parameterCategory":1,"la1":30.2991,"la2":30.254,"lo1":-89.0895,"lo2":-89.0444,"dy":0.0017,"dx":0.0017,"nx":28,"ny":28,"refTime":"2026-02-03T03:00:00:Z","depth":0,"parameterNumber":2,"parameterNumberName":"U-component_of_WINDS"},"data":[0,0,0,0,0,0,0,0,0,0,0,0,0,0,0,0,0,0,0,0,0,0,0,0,0,0,0,0,0,0,0,0,0,0,0,0,0,0,0,0,0,0,0,0,0,0,0,0,0,0,0,0,0,0,0,0,0,0,2.1895,2.1895,0,2.1957,2.1957,2.1958,2.1933,2.1932,2.193,2.1929,2.1994,2.1997,2.2,0,0,0,0,0,0,0,0,0,0,0,0,0,2.1757,2.176,2.1895,2.1895,2.1896,2.1956,2.1957,2.1958,2.1934,2.1932,2.193,2.1928,2.1993,2.1997,2.2001,0,0,0,0,0,0,0,0,0,0,0,0,0,2.1818,2.1761,2.1894,2.1891,2.1891,2.1956,2.1957,2.1958,2.1934,2.1932,2.193,2.1928,2.1992,2.1997,2.2001,2.2074,0,0,2.2015,2.2017,0,0,0,0,0,0,0,0,2.1814,2.1823,2.1891,2.1891,2.1892,2.1935,2.1933,2.1997,2.1934,2.1918,2.1929,2.1926,2.1977,2.1982,2.1999,2.2077,2.208,2.2016,2.2019,2.2021,2.2022,0,0,0,0,0,0,0,2.181,2.182,2.1919,2.1892,2.1893,2.1887,2.1893,2.1945,2.1959,2.1919,2.1917,2.1925,2.1976,2.1994,2.2,2.2081,2.2016,2.202,2.2023,2.2025,2.2222,2.2224,0,0,0,0,0,0,2.1806,2.1817,2.1917,2.1921,2.1847,2.1891,2.1898,2.1923,2.1958,2.1961,2.1927,2.1924,2.1987,2.1995,2.2002,2.209,2.2021,2.2025,2.2028,2.2219,2.2222,2.2225,0,0,0,0,0,0,2.1803,2.1815,2.1915,2.1869,2.1881,2.1896,2.1924,2.1926,2.1944,2.1964,2.1966,2.1943,2.1986,2.1996,2.2056,2.2092,2.2027,2.2031,2.2217,2.222,2.2224,2.2265,0,0,0,0,0,0,2.1799,2.1814,2.1841,2.1869,2.1883,2.1967,2.1927,2.1929,2.1951,2.1948,2.1979,2.1982,2.1985,2.2049,2.2061,2.2097,2.2035,2.2213,2.2218,2.2223,2.226,2.2269,2.2277,0,0,0,0,0,2.1794,2.185,2.1843,2.1855,2.1917,2.1969,2.1977,2.1978,2.1954,2.1982,2.1995,2.1981,2.2086,2.2056,2.2068,2.2106,2.2211,2.2217,2.2222,2.2257,2.2268,2.2277,0,0,0,0,0,0,2.1826,2.1854,2.1846,2.1912,2.1939,2.1965,2.2,2.199,2.2024,2.2019,2.202,2.2027,2.209,2.2104,2.207,2.2179,2.2145,2.2153,2.2167,2.2178,2.2186,2.2181,2.2039,0,0,0,0,0,2.1841,2.188,2.1902,2.1959,2.1973,2.1984,2.2007,2.2005,2.2033,2.2044,2.2061,2.2089,2.2128,2.2154,2.2191,2.2262,2.2269,2.2295,2.2303,2.231,2.2317,2.2357,2.2369,2.2243,2.2243,2.2243,0,0,2.1872,2.1892,2.1917,2.1966,2.1986,2.2027,2.1994,2.2038,2.2069,2.2051,2.2108,2.2123,2.2153,2.222,2.225,2.2234,2.2354,2.2317,2.2322,2.2326,2.2364,2.2376,2.2386,2.2247,2.2246,2.2246,0,0,2.195,2.1969,2.2018,2.2039,2.207,2.2077,2.2089,2.2117,2.2125,2.2183,2.2171,2.2208,2.2275,2.2297,2.2318,2.2405,2.2394,2.2417,2.2461,2.25,2.2509,2.2518,2.2549,2.2561,2.2424,2.2424,2.2424,0,2.1984,2.2045,2.2045,2.2091,2.2113,2.2099,2.2149,2.217,2.2211,2.2228,2.2209,2.2293,2.2313,2.2385,2.2406,2.2423,2.2437,2.2413,2.2508,2.2517,2.2525,2.2555,2.2566,2.2427,2.2427,2.2426,2.2426,0,2.2086,2.2129,2.2165,2.2205,2.2232,2.228,2.2288,2.2315,2.2312,2.2322,2.2382,2.2405,2.2447,2.2464,2.2461,2.2536,2.2525,2.2507,2.2473,2.2539,2.2567,2.2579,2.2431,2.243,2.2429,2.2428,0,0,2.2185,2.2225,2.2238,2.2256,2.229,2.2323,2.2371,2.2411,2.2435,2.2464,2.2505,2.2562,2.2546,2.2569,2.2569,2.2603,2.2671,2.2582,2.2582,2.2597,2.2755,2.2768,2.2781,2.2664,2.2666,2.2668,2.2752,0,2.2264,2.2348,2.235,2.2426,2.2466,2.2453,2.2495,2.252,2.2531,2.2567,2.2578,2.2619,2.2595,2.2609,2.2642,2.2656,2.2703,2.265,2.2702,2.2704,2.2694,2.2795,2.2809,2.2887,2.2763,2.2765,2.2766,0,2.2368,2.2401,2.2481,2.2509,2.2526,2.2564,2.2601,2.2635,2.2664,2.267,2.2696,2.2691,2.2741,2.2706,2.2775,2.2739,2.2761,2.2771,2.2774,2.2779,2.2739,2.2803,2.2912,2.2924,2.2784,2.2782,2.2781,0,2.2432,2.2496,2.2552,2.2568,2.2603,2.263,2.2645,2.2672,2.2696,2.273,2.2746,2.2784,2.2806,2.2836,2.2842,2.2816,2.2912,2.2877,2.2918,2.2918,2.2938,2.2937,2.3053,2.2953,2.2953,2.2952,2.2952,0,2.252,2.257,2.2581,2.2616,2.2672,2.2674,2.273,2.2743,2.2768,2.2805,2.2797,2.2833,2.2839,2.2877,2.2882,2.2938,2.2948,2.2954,2.2955,2.2955,2.2954,2.2969,2.2963,2.2955,2.2955,2.2954,2.2954,0,2.26,2.261,2.267,2.2698,2.2707,2.2746,2.2771,2.2804,2.2814,2.2862,2.2874,2.289,2.2933,2.2943,2.2995,2.2998,2.3065,2.3061,2.3055,2.3055,2.3095,2.3091,2.3224,2.3242,2.3131,2.3132,2.3133,0,2.2656,2.2694,2.2726,2.275,2.2767,2.2807,2.2832,2.2836,2.2863,2.2899,2.2929,2.2971,2.3006,2.3076,2.3093,2.3133,2.3129,2.3173,2.3135,2.3134,2.313,2.3127,2.3131,2.318,2.3181,2.3182,2.3183,0,2.2753,2.2756,2.2792,2.283,2.286,2.2891,2.2919,2.294,2.2949,2.2979,2.3024,2.305,2.3103,2.3146,2.3186,2.3203,2.3195,2.3195,2.3207,2.3207,2.3202,2.3205,2.3075,2.3192,2.3191,2.319,2.319,2.319,2.2822,2.2856,2.2884,2.2924,2.2947,2.2974,2.3007,2.3022,2.3058,2.3102,2.3103,2.3151,2.318,2.3233,2.3253,2.3291,2.3278,2.3295,2.3299,2.3303,2.3306,2.3196,2.3299,2.3299,2.3298,2.3298,2.3298,0,2.2919,2.2937,2.2974,2.3015,2.3047,2.3037,2.3068,2.3096,2.3139,2.3167,2.3201,2.3252,2.3294,2.3314,2.3356,2.3383,2.338,2.3394,2.3391,2.3395,2.3316,2.3302,2.3395,2.3395,2.3395,2.3395,2.3395,2.3395,2.2973,2.3029,2.3036,2.3103,2.3121,2.3168,2.3187,2.3213,2.3235,2.3293,2.3327,2.334,2.3365,2.3408,2.3447,2.3452,2.3467,2.3482,2.3485,2.3411,2.3401,2.3392,2.3378,2.3486,2.3486,2.3562,2.3562,2.3563]},{"header":{"parameterUnit":"m.s-1","parameterCategory":1,"la1":30.2991,"la2":30.254,"lo1":-89.0895,"lo2":-89.0444,"dy":0.0017,"dx":0.0017,"nx":28,"ny":28,"refTime":"2026-02-03T03:00:00:Z","depth":0,"parameterNumber":3,"parameterNumberName":"V-component_of_WINDS"},"data":[0,0,0,0,0,0,0,0,0,0,0,0,0,0,0,0,0,0,0,0,0,0,0,0,0,0,0,0,0,0,0,0,0,0,0,0,0,0,0,0,0,0,0,0,0,0,0,0,0,0,0,0,0,0,0,0,0,0,3.6883,3.6885,0,3.7015,3.7016,3.7018,3.6982,3.6979,3.6977,3.6974,3.7111,3.7117,3.7123,0,0,0,0,0,0,0,0,0,0,0,0,0,3.6605,3.661,3.6883,3.6885,3.6887,3.7014,3.7016,3.7018,3.6982,3.6979,3.6976,3.6973,3.7109,3.7116,3.7124,0,0,0,0,0,0,0,0,0,0,0,0,0,3.673,3.6612,3.6883,3.6884,3.6886,3.7014,3.7016,3.7018,3.6983,3.6979,3.6975,3.6972,3.7107,3.7116,3.7125,3.726,0,0,3.7153,3.7157,0,0,0,0,0,0,0,0,3.6723,3.674,3.6882,3.6884,3.6886,3.6978,3.6968,3.71,3.6984,3.6946,3.6974,3.697,3.707,3.7082,3.7115,3.7267,3.7273,3.7153,3.7159,3.7163,3.7165,0,0,0,0,0,0,0,3.6714,3.6734,3.6935,3.6885,3.6887,3.6879,3.6893,3.6993,3.7029,3.6949,3.6947,3.6963,3.707,3.7107,3.7118,3.7275,3.7153,3.7161,3.7167,3.7171,3.7546,3.755,0,0,0,0,0,0,3.6704,3.6727,3.6931,3.6939,3.6793,3.6887,3.6902,3.6952,3.7028,3.7035,3.6966,3.6961,3.7093,3.7108,3.7123,3.7288,3.7163,3.7171,3.7177,3.7541,3.7547,3.7552,0,0,0,0,0,0,3.6698,3.6722,3.6926,3.6833,3.6858,3.6896,3.6953,3.6957,3.6993,3.704,3.7047,3.6996,3.709,3.711,3.7227,3.7293,3.7176,3.7184,3.7536,3.7543,3.7549,3.7619,0,0,0,0,0,0,3.669,3.672,3.6772,3.6834,3.6863,3.7027,3.6957,3.6963,3.7009,3.7003,3.7071,3.7078,3.7089,3.7213,3.7236,3.7303,3.7191,3.753,3.7539,3.7547,3.7611,3.7627,3.7641,0,0,0,0,0,3.668,3.6786,3.6775,3.6799,3.6928,3.7031,3.7047,3.7057,3.7014,3.7067,3.7097,3.7076,3.7281,3.7225,3.7251,3.7322,3.7526,3.7537,3.7546,3.7604,3.7624,3.7641,0,0,0,0,0,0,3.6731,3.6795,3.6782,3.6911,3.6966,3.7024,3.7091,3.7077,3.7146,3.7138,3.7147,3.7163,3.7282,3.7313,3.725,3.7458,3.7398,3.7413,3.7433,3.7453,3.7467,3.7458,3.7199,0,0,0,0,0,3.6758,3.6835,3.6886,3.6995,3.7023,3.7052,3.7097,3.71,3.7157,3.718,3.7219,3.7276,3.7354,3.7404,3.7478,3.7615,3.763,3.7676,3.7691,3.7703,3.7717,3.7793,3.7815,3.7585,3.7585,3.7584,0,0,3.6813,3.6857,3.6905,3.7007,3.7049,3.713,3.7072,3.716,3.722,3.7194,3.7307,3.7337,3.7401,3.7529,3.7587,3.7559,3.7784,3.7716,3.7726,3.7733,3.7806,3.7828,3.7847,3.7591,3.759,3.7589,0,0,3.6955,3.6995,3.7092,3.7135,3.72,3.7219,3.7242,3.7303,3.7322,3.7435,3.7417,3.749,3.7623,3.7669,3.7711,3.7871,3.7855,3.7895,3.7975,3.8049,3.8067,3.8083,3.8142,3.8163,3.7908,3.7909,3.7909,0,3.7016,3.7136,3.7143,3.7233,3.7278,3.7257,3.7356,3.7398,3.7484,3.7517,3.7483,3.765,3.7692,3.7831,3.787,3.7903,3.7931,3.7888,3.8063,3.808,3.8095,3.8151,3.8173,3.7913,3.7913,3.7912,3.7912,0,3.7208,3.7292,3.7362,3.7445,3.7499,3.7592,3.7614,3.7668,3.7666,3.7689,3.7805,3.7854,3.7938,3.7971,3.797,3.8111,3.8091,3.806,3.8001,3.8121,3.8175,3.8196,3.792,3.7918,3.7917,3.7916,0,0,3.7387,3.7473,3.7499,3.7537,3.7607,3.7672,3.7765,3.7847,3.7893,3.7953,3.8033,3.8146,3.8118,3.8165,3.8169,3.8234,3.836,3.8196,3.8197,3.8226,3.852,3.8544,3.8568,3.8349,3.8353,3.8356,3.8515,0,3.7536,3.77,3.7709,3.7857,3.7936,3.7917,3.7998,3.8051,3.8075,3.8145,3.8171,3.8252,3.8209,3.8237,3.83,3.8331,3.842,3.832,3.8424,3.8428,3.841,3.8596,3.8621,3.8768,3.8535,3.8539,3.8542,0,3.7733,3.7799,3.7955,3.8015,3.8048,3.8121,3.8197,3.8264,3.8324,3.8337,3.8389,3.8385,3.8481,3.8417,3.8551,3.8483,3.8526,3.8548,3.8554,3.8565,3.8493,3.8614,3.8815,3.8838,3.8574,3.8571,3.8569,0,3.7849,3.7977,3.8087,3.812,3.8193,3.8245,3.8278,3.8333,3.8382,3.8448,3.8481,3.8558,3.86,3.8661,3.8677,3.8629,3.8812,3.8748,3.8826,3.8826,3.8867,3.8865,3.908,3.8892,3.8892,3.8891,3.8891,0,3.8016,3.8113,3.8141,3.8209,3.8317,3.8327,3.8434,3.8464,3.8514,3.8588,3.8576,3.8646,3.8663,3.8737,3.875,3.886,3.8879,3.8893,3.8896,3.8896,3.8894,3.8925,3.8916,3.8897,3.8896,3.8895,3.8894,0,3.8165,3.8188,3.8307,3.8366,3.8383,3.846,3.8511,3.8577,3.8599,3.8694,3.8716,3.8752,3.8838,3.886,3.8963,3.8972,3.9102,3.9094,3.9082,3.9083,3.916,3.9153,3.9404,3.9439,3.9227,3.9229,3.923,0,3.8271,3.8345,3.8412,3.8461,3.8496,3.8574,3.8624,3.8637,3.8689,3.8763,3.8821,3.8905,3.8974,3.9113,3.9148,3.9227,3.9222,3.9305,3.9234,3.9232,3.9226,3.9222,3.923,3.9319,3.9321,3.9323,3.9324,0,3.8457,3.8464,3.8536,3.8613,3.8672,3.8733,3.8792,3.8832,3.8853,3.8913,3.9001,3.9054,3.9159,3.9244,3.9324,3.9359,3.9347,3.9346,3.9369,3.937,3.936,3.9368,3.9121,3.9341,3.9339,3.9338,3.9337,3.9336,3.8589,3.8654,3.8712,3.8793,3.8838,3.8893,3.8958,3.8988,3.9061,3.9148,3.9151,3.9247,3.9306,3.9412,3.9451,3.9527,3.9502,3.9534,3.9543,3.9551,3.9559,3.9347,3.9541,3.9541,3.954,3.954,3.954,0,3.8775,3.8811,3.8886,3.8968,3.9032,3.9013,3.9077,3.9132,3.9216,3.9272,3.9339,3.9441,3.9524,3.9565,3.9647,3.97,3.9697,3.9722,3.9719,3.9727,3.9575,3.9548,3.9723,3.9723,3.9723,3.9723,3.9723,3.9723,3.888,3.899,3.9005,3.9138,3.9174,3.9267,3.9306,3.9357,3.9401,3.9515,3.9583,3.961,3.9661,3.9746,3.9821,3.9832,3.9863,3.9892,3.9899,3.9757,3.9738,3.972,3.9695,3.9898,3.9898,4.0045,4.0046,4.0047]}]]